Weather in Florida

Uruguay     34°05′42″S   56°12′41″W
temp.,
°C
wind,
m/s
gust,
m/s
humid.,
%
clouds,
%
prec.,
mm/h
press.,
hPa
HPBL,
m
9 march, tue
tue900:00+19se5109061 0.1 1016383
03:00+18sse489078 0.1 1016441
06:00+19sse358286 0.0 1016529
09:00+21sse346985 0.0 1017667
12:00+26s33430 0.0 10171382
15:00+28sse44330 0.0 10151973
18:00+25se66460 0.0 1014856
21:00+17se410850 0.0 1015285
10 march, wed
wed1000:00+15e38970 0.0 1015290
03:00+14e23970 0.0 101477
06:00+14e23971 0.0 101547
09:00+19ne46805 0.0 1015417
12:00+26nne43498 0.0 10141314
15:00+28nne22354 0.0 10121820
18:00+27ne34390 0.0 1010485
21:00+20ene4106550 0.0 1011179
11 march, thu
thu1100:00+18ne5137888 0.0 1011336
03:00+17nne4109193 0.0 1011273
06:00+16nne489468 0.0 1012208
09:00+21n576959 0.0 1013348
12:00+28n324470 0.0 10141133
15:00+32e123468 0.0 10122082
18:00+29ne34380 0.0 1010385
21:00+22ne47550 0.0 1011125
12 march, fri
fri1200:00+20nne5116021 0.0 1012203
03:00+19n376711 0.0 1012144
06:00+18n47710 0.0 1013150
09:00+23n34536 0.0 1015336
12:00+30nw333618 0.0 10151109
15:00+33nnw123045 0.0 10141751
18:00+31sse223624 0.0 1013150
21:00+21se5117233 0.0 1015328
13 march, sat
sat1300:00+19se498640 0.0 1016294
03:00+18ese389653 0.0 1015225
06:00+17e269768 0.0 1016162
09:00+22e236980 0.0 1018334
12:00+26s115262 0.0 1017855
15:00+31sse233241 0.0 10152162
18:00+28se674046 0.0 1014750
21:00+20se5127723 0.0 1016390